Time,TemperatureF,DewpointF,PressureIn,WindDirection,WindDirectionDegrees,WindSpeedMPH,WindSpeedGustMPH,Humidity,HourlyPrecipIn,Conditions,Clouds,dailyrainin,SoftwareType,DateUTC
2013-12-28 00:12:00,41.0,36.0,30.00,ESE,121,0.0,0.0,83,0.00,,,0.00,,2013-12-28 06:12:00,
2013-12-28 00:22:00,41.0,36.0,29.99,ESE,121,0.0,0.0,83,0.00,,,0.00,,2013-12-28 06:22:00,
2013-12-28 00:42:00,40.0,36.0,29.98,ESE,121,0.0,0.0,84,0.00,,,0.00,,2013-12-28 06:42:00,
2013-12-28 00:52:00,40.0,36.0,29.98,ESE,121,0.0,0.0,84,0.00,,,0.00,,2013-12-28 06:52:00,
2013-12-28 01:22:00,40.0,36.0,29.98,ESE,121,0.0,0.0,85,0.00,,,0.00,,2013-12-28 07:22:00,
2013-12-28 01:42:00,41.0,37.0,29.97,ESE,121,0.0,0.0,85,0.00,,,0.00,,2013-12-28 07:42:00,
2013-12-28 01:52:00,41.0,37.0,29.96,ESE,121,0.0,0.0,84,0.00,,,0.00,,2013-12-28 07:52:00,
2013-12-28 02:11:00,42.0,38.0,29.96,ESE,121,0.0,0.0,84,0.00,,,0.00,,2013-12-28 08:11:00,
2013-12-28 02:22:00,41.0,37.0,29.95,ESE,121,0.0,0.0,84,0.00,,,0.00,,2013-12-28 08:22:00,
2013-12-28 02:42:00,40.0,36.0,29.95,ESE,121,0.0,0.0,85,0.00,,,0.00,,2013-12-28 08:42:00,
2013-12-28 02:52:00,39.0,35.0,29.96,ESE,121,0.0,0.0,86,0.00,,,0.00,,2013-12-28 08:52:00,
2013-12-28 03:11:00,38.0,34.0,29.96,ESE,121,0.0,0.0,87,0.00,,,0.00,,2013-12-28 09:11:00,
2013-12-28 03:22:00,38.0,35.0,29.95,ESE,121,0.0,0.0,89,0.00,,,0.00,,2013-12-28 09:22:00,
2013-12-28 03:43:00,38.0,35.0,29.94,ESE,121,0.0,0.0,89,0.00,,,0.00,,2013-12-28 09:43:00,
2013-12-28 03:53:00,38.0,35.0,29.93,ESE,121,0.0,0.0,90,0.00,,,0.00,,2013-12-28 09:53:00,
2013-12-28 04:12:00,37.0,34.0,29.93,ESE,121,0.0,0.0,88,0.00,,,0.00,,2013-12-28 10:12:00,
2013-12-28 04:23:00,36.0,33.0,29.92,ESE,121,0.0,0.0,90,0.00,,,0.00,,2013-12-28 10:23:00,
2013-12-28 04:43:00,36.0,34.0,29.92,ESE,121,0.0,0.0,91,0.00,,,0.00,,2013-12-28 10:43:00,
2013-12-28 04:53:00,35.0,33.0,29.92,ESE,121,0.0,0.0,91,0.00,,,0.00,,2013-12-28 10:53:00,
2013-12-28 05:12:00,35.0,33.0,29.91,ESE,121,0.0,0.0,92,0.00,,,0.00,,2013-12-28 11:12:00,
2013-12-28 05:22:00,35.0,33.0,29.91,ESE,121,0.0,0.0,92,0.00,,,0.00,,2013-12-28 11:22:00,
2013-12-28 05:43:00,35.0,33.0,29.91,ESE,121,0.0,0.0,91,0.00,,,0.00,,2013-12-28 11:43:00,
2013-12-28 05:52:00,35.0,33.0,29.91,ESE,121,0.0,0.0,92,0.00,,,0.00,,2013-12-28 11:52:00,
2013-12-28 06:11:00,35.0,33.0,29.90,ESE,121,0.0,0.0,91,0.00,,,0.00,,2013-12-28 12:11:00,
2013-12-28 06:23:00,34.0,32.0,29.91,ESE,121,0.0,0.0,92,0.00,,,0.00,,2013-12-28 12:23:00,
2013-12-28 06:42:00,35.0,33.0,29.91,ESE,121,0.0,1.0,92,0.00,,,0.00,,2013-12-28 12:42:00,
2013-12-28 06:52:00,35.0,33.0,29.91,ESE,121,0.0,1.0,92,0.00,,,0.00,,2013-12-28 12:52:00,
2013-12-28 07:22:00,37.0,35.0,29.91,ESE,121,0.0,1.0,93,0.00,,,0.00,,2013-12-28 13:22:00,
2013-12-28 07:42:00,37.0,35.0,29.91,ESE,121,0.0,0.0,92,0.00,,,0.00,,2013-12-28 13:42:00,
2013-12-28 07:52:00,38.0,36.0,29.91,ESE,121,0.0,1.0,93,0.00,,,0.00,,2013-12-28 13:52:00,
2013-12-28 08:12:00,38.0,36.0,29.91,SSE,148,0.0,2.0,91,0.00,,,0.00,,2013-12-28 14:12:00,
2013-12-28 08:22:00,38.0,36.0,29.90,SSE,148,0.0,0.0,91,0.00,,,0.00,,2013-12-28 14:22:00,
2013-12-28 08:42:00,38.0,36.0,29.90,SSE,148,0.0,0.0,91,0.00,,,0.00,,2013-12-28 14:42:00,
2013-12-28 08:52:00,38.0,36.0,29.90,SSE,148,0.0,1.0,92,0.00,,,0.00,,2013-12-28 14:52:00,
2013-12-28 09:12:00,40.0,38.0,29.91,SSE,148,0.0,1.0,91,0.00,,,0.00,,2013-12-28 15:12:00,
2013-12-28 09:22:00,41.0,38.0,29.91,SSE,148,0.0,2.0,89,0.00,,,0.00,,2013-12-28 15:22:00,
2013-12-28 09:44:00,43.0,39.0,29.90,SSE,148,0.0,0.0,87,0.00,,,0.00,,2013-12-28 15:44:00,
2013-12-28 09:53:00,45.0,41.0,29.90,SE,146,1.0,2.0,85,0.00,,,0.00,,2013-12-28 15:53:00,
2013-12-28 10:13:00,46.0,41.0,29.90,SE,140,0.0,4.0,83,0.00,,,0.00,,2013-12-28 16:13:00,
2013-12-28 10:23:00,48.0,42.0,29.90,ESE,120,3.0,7.0,80,0.00,,,0.00,,2013-12-28 16:23:00,
2013-12-28 10:43:00,49.0,42.0,29.89,SE,144,1.0,6.0,77,0.00,,,0.00,,2013-12-28 16:43:00,
2013-12-28 10:53:00,50.0,42.0,29.88,SE,125,3.0,6.0,75,0.00,,,0.00,,2013-12-28 16:53:00,
2013-12-28 11:12:00,52.0,44.0,29.88,ESE,106,2.0,7.0,73,0.00,,,0.00,,2013-12-28 17:12:00,
2013-12-28 11:22:00,53.0,43.0,29.88,South,182,3.0,10.0,70,0.00,,,0.00,,2013-12-28 17:22:00,
2013-12-28 11:42:00,54.0,44.0,29.88,SSE,148,4.0,12.0,69,0.00,,,0.00,,2013-12-28 17:42:00,
2013-12-28 11:52:00,55.0,45.0,29.87,SSE,147,6.0,13.0,68,0.00,,,0.00,,2013-12-28 17:52:00,
2013-12-28 12:12:00,56.0,44.0,29.85,South,186,4.0,11.0,64,0.00,,,0.00,,2013-12-28 18:12:00,
2013-12-28 12:22:00,57.0,45.0,29.84,SE,140,3.0,11.0,63,0.00,,,0.00,,2013-12-28 18:22:00,
2013-12-28 12:42:00,57.0,45.0,29.83,SSW,205,4.0,9.0,63,0.00,,,0.00,,2013-12-28 18:42:00,
2013-12-28 12:52:00,58.0,44.0,29.80,South,184,3.0,13.0,60,0.00,,,0.00,,2013-12-28 18:52:00,
2013-12-28 13:12:00,58.0,43.0,29.79,SSE,167,3.0,11.0,57,0.00,,,0.00,,2013-12-28 19:12:00,
2013-12-28 13:21:00,59.0,44.0,29.78,SSE,166,6.0,10.0,57,0.00,,,0.00,,2013-12-28 19:21:00,
2013-12-28 13:42:00,59.0,43.0,29.76,ESE,119,6.0,9.0,56,0.00,,,0.00,,2013-12-28 19:42:00,
2013-12-28 13:52:00,59.0,44.0,29.75,ESE,114,5.0,10.0,57,0.00,,,0.00,,2013-12-28 19:52:00,
2013-12-28 14:11:00,59.0,43.0,29.73,SSW,193,3.0,10.0,55,0.00,,,0.00,,2013-12-28 20:11:00,
2013-12-28 14:22:00,60.0,43.0,29.73,South,169,2.0,8.0,54,0.00,,,0.00,,2013-12-28 20:22:00,
2013-12-28 14:42:00,60.0,43.0,29.72,South,170,4.0,11.0,54,0.00,,,0.00,,2013-12-28 20:42:00,
2013-12-28 14:52:00,60.0,43.0,29.72,East,86,1.0,8.0,54,0.00,,,0.00,,2013-12-28 20:52:00,
2013-12-28 15:12:00,59.0,42.0,29.70,SSE,150,4.0,10.0,54,0.00,,,0.00,,2013-12-28 21:12:00,
2013-12-28 15:22:00,60.0,42.0,29.70,SE,142,3.0,8.0,52,0.00,,,0.00,,2013-12-28 21:22:00,
2013-12-28 15:43:00,60.0,42.0,29.70,ESE,113,5.0,12.0,51,0.00,,,0.00,,2013-12-28 21:43:00,
2013-12-28 15:53:00,59.0,42.0,29.70,SE,126,5.0,11.0,53,0.00,,,0.00,,2013-12-28 21:53:00,
2013-12-28 16:13:00,60.0,42.0,29.69,East,93,9.0,12.0,52,0.00,,,0.00,,2013-12-28 22:13:00,
2013-12-28 16:23:00,59.0,42.0,29.68,South,182,7.0,14.0,53,0.00,,,0.00,,2013-12-28 22:23:00,
2013-12-28 16:52:00,58.0,40.0,29.68,South,175,6.0,13.0,51,0.00,,,0.00,,2013-12-28 22:52:00,
2013-12-28 17:12:00,58.0,41.0,29.67,SSE,153,5.0,10.0,54,0.00,,,0.00,,2013-12-28 23:12:00,
2013-12-28 17:22:00,57.0,41.0,29.67,SE,130,2.0,9.0,54,0.00,,,0.00,,2013-12-28 23:22:00,
2013-12-28 17:42:00,57.0,41.0,29.67,SE,127,5.0,11.0,55,0.00,,,0.00,,2013-12-28 23:42:00,
2013-12-28 17:53:00,57.0,42.0,29.67,SE,130,3.0,10.0,57,0.00,,,0.00,,2013-12-28 23:53:00,
2013-12-28 18:11:00,56.0,42.0,29.67,SE,139,3.0,7.0,59,0.00,,,0.00,,2013-12-29 00:11:00,
2013-12-28 18:22:00,55.0,41.0,29.67,SSE,159,4.0,7.0,60,0.00,,,0.00,,2013-12-29 00:22:00,
2013-12-28 18:42:00,54.0,40.0,29.67,SE,145,3.0,6.0,60,0.00,,,0.00,,2013-12-29 00:42:00,
2013-12-28 18:52:00,54.0,41.0,29.67,SE,133,2.0,7.0,62,0.00,,,0.00,,2013-12-29 00:52:00,
2013-12-28 19:11:00,53.0,40.0,29.67,SSE,150,2.0,7.0,62,0.00,,,0.00,,2013-12-29 01:11:00,
2013-12-28 19:22:00,52.0,40.0,29.67,SE,133,3.0,7.0,64,0.00,,,0.00,,2013-12-29 01:22:00,
2013-12-28 19:42:00,52.0,40.0,29.66,SE,124,2.0,9.0,64,0.00,,,0.00,,2013-12-29 01:42:00,
2013-12-28 19:52:00,52.0,41.0,29.66,SE,142,3.0,7.0,65,0.00,,,0.00,,2013-12-29 01:52:00,
2013-12-28 20:11:00,52.0,41.0,29.66,South,174,3.0,8.0,65,0.00,,,0.00,,2013-12-29 02:11:00,
2013-12-28 20:22:00,52.0,40.0,29.66,SE,144,4.0,9.0,64,0.00,,,0.00,,2013-12-29 02:22:00,
2013-12-28 20:42:00,52.0,40.0,29.65,ESE,123,3.0,8.0,64,0.00,,,0.00,,2013-12-29 02:42:00,
2013-12-28 20:52:00,51.0,39.0,29.65,SSE,150,3.0,8.0,64,0.00,,,0.00,,2013-12-29 02:52:00,
2013-12-28 21:22:00,50.0,38.0,29.65,South,177,3.0,10.0,63,0.00,,,0.00,,2013-12-29 03:22:00,
2013-12-28 21:43:00,50.0,38.0,29.65,South,169,4.0,7.0,63,0.00,,,0.00,,2013-12-29 03:43:00,
2013-12-28 21:53:00,49.0,37.0,29.65,ESE,121,3.0,8.0,63,0.00,,,0.00,,2013-12-29 03:53:00,
2013-12-28 22:02:00,-999.0,-99.9,29.65,SSE,150,2.0,7.0,-999,0.00,,,0.00,,2013-12-29 04:02:00,
2013-12-28 22:13:00,49.0,37.0,29.65,SSE,150,2.0,7.0,62,0.00,,,0.00,,2013-12-29 04:13:00,
2013-12-28 22:22:00,49.0,37.0,29.65,South,176,2.0,8.0,62,0.00,,,0.00,,2013-12-29 04:22:00,
2013-12-28 22:42:00,48.0,36.0,29.65,SSE,159,2.0,5.0,63,0.00,,,0.00,,2013-12-29 04:42:00,
2013-12-28 22:53:00,48.0,37.0,29.64,South,170,2.0,6.0,65,0.00,,,0.00,,2013-12-29 04:53:00,
2013-12-28 23:12:00,47.0,36.0,29.64,South,169,0.0,5.0,66,0.00,,,0.00,,2013-12-29 05:12:00,
2013-12-28 23:23:00,46.0,36.0,29.64,SSE,168,1.0,4.0,68,0.00,,,0.00,,2013-12-29 05:23:00,
2013-12-28 23:43:00,46.0,36.0,29.64,SSE,156,0.0,6.0,67,0.00,,,0.00,,2013-12-29 05:43:00,
2013-12-28 23:53:00,46.0,35.0,29.64,SSE,148,2.0,6.0,66,0.00,,,0.00,,2013-12-29 05:53:00,